Regional Weather Roundup
Issued by NWS Albany, NY

Home | Current Version | Previous Version | Graphics & Text | Print | Product List | Glossary Off
Versions: 1 2 3 4 5 6 7 8 9 10 11 12 13 14 15 16 17 18 19 20 21 22 23 24 25 26 27 28 29 30 31 32 33 34 35 36 37 38 39 40 41 42 43 44 45 46 47 48 49 50

000
ASUS41 KALY 220410
RWRALY

NEW YORK STATE HOURLY WEATHER ROUNDUP
NATIONAL WEATHER SERVICE ALBANY NY
1200 AM EDT SUN OCT 22 2017

NOTE: "FAIR" INDICATES FEW OR NO CLOUDS BELOW 12,000 FEET WITH NO
SIGNIFICANT WEATHER AND/OR NO OBSTRUCTIONS TO VISIBILITY.

NYZ032-033-038>043-046>054-057>066-NYZ062>081-082-084-220500-
EAST


CITY           SKY/WX    TMP DP  RH WIND       PRES   REMARKS
ALBANY         MOCLDY    48  45  89 CALM      30.34R
GLENS FALLS    CLEAR     41  40  96 CALM      30.33R FOG
POUGHKEEPSIE   CLOUDY    47  44  90 CALM      30.34R
NEWBURGH       CLEAR     52  45  76 W5        30.36S
MONTGOMERY     CLEAR     46  43  89 CALM      30.35R
WHITE PLAINS   CLEAR     52  47  83 W5        30.35S
ISLIP          PTCLDY    56  55  97 CALM      30.35S
NEW YORK CITY  MOCLDY    66  46  48 SW6       30.35S
CENTRAL PARK   CLEAR     65  47  52 VRB3      30.38S
$$

NYZ005>009-017-018-044>046-055-056-220500-
CENTRAL


CITY           SKY/WX    TMP DP  RH WIND       PRES   REMARKS
FULTON         CLEAR     53  47  79 SE6       30.28S
SYRACUSE       PTCLDY    47  45  93 CALM      30.28F
ROME           PTCLDY    46  43  89 CALM      30.33S
ELMIRA         PTCLDY    45  43  93 CALM      30.32F
BINGHAMTON     CLOUDY    58  38  47 S5        30.35S
MONTICELLO     CLOUDY    47  42  83 N5        30.39S
$$

NYZ026>034-041>043-087-220500-
NORTH


CITY           SKY/WX    TMP DP  RH WIND       PRES   REMARKS
WATERTOWN      CLOUDY    43  42  97 NE3       30.27R
FORT DRUM      NOT AVBL
OGDENSBURG     FAIR      46  45  93 CALM      30.27S
MASSENA        CLOUDY    50  47  89 CALM      30.29S
SARANAC LAKE   CLOUDY    38  38 100 CALM      30.33R
PLATTSBURGH    PTCLDY    49  46  90 CALM      30.29S
$$

NYZ001>004-010>016-019>021-085-220500-
WEST


CITY           SKY/WX    TMP DP  RH WIND       PRES   REMARKS
NIAGARA FALLS  PTCLDY    59  46  62 SE5       30.22F
BUFFALO        PTCLDY    59  45  59 S5        30.24S
DUNKIRK        PTCLDY    65  45  48 S9        30.24S
JAMESTOWN      CLOUDY    58  43  57 S7        30.28F
WELLSVILLE     CLOUDY    62  40  44 S8        30.34S
ROCHESTER      MOCLDY    53  48  83 SW6       30.26S
PENN YAN       PTCLDY    62  42  47 S9        30.29F
$$

             KEY
       WCI = WIND CHILL INDEX
       VSB = VISIBILITY
       HX  = HEAT INDEX
$$



USA.gov is the U.S. government's official web portal to all federal, state and local government web resources and services.